RH
11 10 11 11 11 11 12 13 14 14 14 14 13 13 14 15 17 18 18 19 20 20 20 20 20 20 20 20 20 21 20 20 21 20 20 20 20 20 21 22 21 21 19 19 19 18 18 17 18 19 19 23 22 25 27 32 54 56 50 57 44 34 48 57 61 61 58 60 62 60 53 47 42 37 32 26 23 22 21 20 18 16 13 10 9 9
12 11 11 10 11 11 11 12 13 14 15 15 15 14 15 15 17 17 18 19 19 19 20 19 19 20 20 20 19 20 20 20 19 20 20 18 19 19 20 22 21 22 20 18 18 18 19 19 20 22 23 28 26 23 18 15 33 49 56 66 48 24 32 45 52 55 55 58 59 54 50 47 45 44 40 33 30 29 29 24 19 17 15 13 11 9
12 11 11 10 10 10 11 11 12 13 14 15 17 16 16 17 16 16 17 18 18 19 19 19 19 19 19 19 20 18 17 19 19 18 18 15 15 18 21 22 22 23 21 20 21 22 24 26 26 26 25 26 23 18 16 12 24 44 51 57 48 32 32 39 46 53 55 55 52 45 43 44 47 47 42 38 37 36 36 30 22 18 18 18 15 13
13 11 11 10 9 9 10 11 11 11 12 14 15 16 17 17 17 19 19 17 18 18 18 18 17 18 19 16 16 19 17 16 17 15 13 13 15 19 22 23 25 26 25 26 28 30 35 36 33 30 25 24 20 17 17 13 17 33 43 49 49 39 37 41 44 50 53 51 45 40 40 42 45 45 42 41 40 41 42 35 24 20 19 20 20 18
14 13 12 11 10 10 9 9 10 10 11 11 11 13 16 15 17 20 18 16 16 16 16 16 16 18 22 20 14 15 16 14 14 14 13 15 16 19 25 28 29 30 32 38 42 44 46 43 37 33 29 28 25 20 20 19 18 23 31 39 39 34 35 39 43 48 51 48 44 41 41 44 45 44 42 41 41 48 50 38 25 22 22 24 28 29
15 15 13 12 11 11 10 10 9 9 9 10 10 10 11 12 13 14 14 13 13 15 15 13 20 25 21 23 22 15 18 20 20 22 22 22 23 27 33 35 35 42 50 57 57 53 47 41 39 38 34 34 33 27 24 23 23 23 27 31 29 28 30 32 38 46 48 47 45 43 43 44 46 45 44 46 50 56 55 41 26 25 34 42 45 45
17 16 14 14 13 11 11 10 9 10 9 8 9 10 10 11 11 11 10 10 16 27 24 14 28 47 38 29 30 23 24 31 32 35 36 35 39 41 43 48 56 64 68 63 55 47 43 41 44 43 38 36 35 31 27 25 23 22 23 23 23 25 27 29 36 42 47 49 47 46 45 43 42 43 47 54 60 60 52 37 25 28 45 56 51 43
18 18 17 15 14 13 12 11 11 10 9 11 13 11 10 9 10 11 8 11 25 37 37 22 23 51 58 39 33 34 33 36 40 44 47 48 51 56 63 70 73 71 64 55 46 41 41 44 48 47 43 42 40 34 30 28 24 22 23 23 24 26 27 31 36 40 45 49 50 49 44 40 37 38 51 63 63 56 44 32 27 30 40 49 46 39
20 19 19 17 15 14 13 12 12 9 10 17 16 10 10 11 10 10 9 12 19 25 38 36 20 39 65 49 37 46 45 41 44 48 53 56 61 73 81 77 69 62 57 51 45 43 45 47 51 52 49 49 45 37 31 28 26 26 27 27 27 29 31 32 33 37 42 47 51 47 39 34 29 33 53 64 56 48 43 37 36 37 37 44 48 40
21 19 19 19 17 15 14 13 12 11 14 18 15 9 10 12 9 10 16 21 19 18 34 46 33 40 68 62 50 56 50 43 44 47 54 59 66 77 77 68 64 61 57 52 48 48 48 49 52 53 52 51 46 40 34 30 30 31 33 34 33 33 34 34 34 36 40 46 49 41 31 28 24 31 52 57 47 41 39 38 39 39 37 42 45 36
21 20 20 21 19 17 15 14 14 12 14 16 13 11 11 13 12 10 18 25 25 24 32 46 42 42 67 73 63 62 55 49 49 47 53 60 65 70 68 65 67 66 62 58 55 54 51 52 56 56 54 52 47 42 38 35 37 40 41 38 37 41 43 41 41 42 44 49 48 36 28 28 26 32 49 55 50 42 34 29 28 28 27 27 28 23
23 22 22 21 20 21 17 15 16 13 14 14 11 13 16 17 14 16 28 27 22 33 44 53 47 38 62 80 70 64 61 59 61 59 60 65 67 68 68 68 68 69 69 61 53 50 47 50 55 57 56 52 48 45 42 42 39 37 38 38 47 63 66 56 49 48 51 51 44 34 31 34 33 34 42 45 45 42 36 35 35 36 36 31 28 24
27 25 25 25 22 22 21 19 18 14 15 14 13 20 29 35 29 23 38 37 26 39 53 57 48 35 54 74 68 67 67 61 62 64 65 67 70 70 67 67 69 74 76 65 53 47 42 42 46 52 55 49 46 43 38 38 36 36 42 46 64 85 87 81 67 49 46 43 36 35 37 38 37 36 38 38 38 38 38 39 40 39 40 41 42 45
33 30 28 28 26 24 23 23 22 21 19 14 19 28 35 56 54 25 31 46 41 46 48 45 41 35 47 60 58 64 70 66 63 64 66 68 71 72 67 66 71 77 80 70 58 54 50 44 39 41 47 43 39 40 40 41 44 50 51 48 70 94 91 86 78 54 44 42 36 39 41 39 38 35 34 32 32 36 37 36 36 35 37 41 45 50
36 39 39 32 29 29 27 27 26 29 31 25 30 39 36 55 65 40 40 58 55 50 46 38 34 34 45 55 57 62 66 66 67 66 67 69 70 71 70 70 75 80 84 79 69 66 62 55 45 35 36 44 47 47 51 60 66 66 57 43 56 81 80 73 71 60 52 49 44 45 43 37 33 31 29 29 33 44 51 49 47 48 53 57 56 54
38 46 53 46 40 36 32 34 30 29 41 40 34 38 36 45 58 50 46 54 53 52 50 41 33 30 38 51 63 71 67 64 67 68 68 70 70 71 71 72 77 81 86 86 81 75 70 71 66 44 28 36 45 44 44 57 72 79 79 71 63 69 73 69 67 65 63 59 56 54 46 38 35 35 37 40 44 52 56 54 55 57 58 61 61 60
53 53 57 53 49 44 38 40 35 33 51 61 48 37 33 35 44 47 42 39 40 45 46 41 39 35 36 47 61 71 73 70 70 69 70 71 71 73 74 76 81 85 87 89 87 84 81 83 83 62 35 22 25 39 47 47 55 66 80 92 86 77 77 73 68 72 76 72 67 61 53 49 49 48 50 54 52 48 44 47 56 59 54 50 49 54
75 75 74 63 53 48 46 47 44 40 46 64 70 59 48 44 41 43 47 44 40 40 38 36 43 45 43 48 56 63 72 76 77 77 75 75 75 76 78 81 86 88 88 88 88 89 88 86 85 72 49 28 27 54 74 65 58 64 77 93 93 83 82 81 79 83 87 83 74 66 59 56 54 52 55 57 49 36 30 33 43 48 48 46 46 51
83 90 94 83 70 60 55 54 53 49 40 47 63 63 63 67 58 47 44 46 47 47 43 38 41 47 49 53 56 60 71 77 79 81 80 79 78 77 78 80 83 84 83 83 82 82 79 75 73 65 52 37 36 64 90 88 78 75 83 96 93 88 91 93 93 95 96 93 81 70 65 63 60 56 51 46 36 29 27 28 33 40 43 48 56 63
87 93 98 95 88 78 70 64 60 59 51 43 46 50 59 69 71 67 58 53 56 59 56 47 41 45 51 53 52 54 66 76 80 83 83 82 81 78 77 76 75 73 70 68 67 66 65 58 53 59 63 51 45 68 90 93 84 76 84 100 99 97 99 95 95 98 96 90 80 70 64 61 58 49 41 35 29 25 23 22 24 29 32 38 50 61
91 94 98 98 93 87 85 79 71 72 68 55 48 47 48 49 56 66 66 64 69 75 76 64 51 52 56 51 48 47 51 57 62 65 67 67 63 58 56 54 50 46 43 42 42 43 44 40 35 48 69 69 64 74 84 85 82 76 85 98 95 93 95 90 92 93 82 71 63 56 50 47 43 37 33 31 25 20 18 16 16 17 19 23 30 39
91 91 97 98 95 94 90 84 80 80 77 73 73 66 60 60 59 58 59 61 63 69 78 78 70 67 65 56 49 46 42 40 40 40 40 40 38 36 35 34 32 31 30 30 31 30 30 31 31 37 55 68 71 73 79 88 90 85 92 101 96 92 95 94 92 82 65 56 51 47 42 37 33 30 30 26 21 18 16 15 18 20 20 22 25 32
93 94 99 99 99 98 90 86 86 84 78 78 83 81 79 80 74 67 67 66 65 64 64 70 76 78 79 72 60 52 50 47 43 40 40 38 37 35 34 33 32 31 31 30 31 31 29 31 38 43 51 63 70 73 79 86 89 90 97 100 99 99 99 96 87 70 56 50 46 42 37 33 30 28 26 23 22 21 18 20 24 26 27 27 28 32
96 99 100 99 101 96 89 90 88 86 86 84 79 76 79 83 80 79 78 75 81 80 65 63 71 73 76 79 74 68 66 60 54 50 48 45 42 39 37 37 38 37 36 36 38 38 39 43 55 69 75 77 79 83 85 84 84 89 94 95 97 101 100 97 86 69 57 51 46 41 37 34 30 27 26 24 23 23 23 26 25 22 21 21 22 26
95 99 98 100 103 98 92 91 86 84 89 89 85 78 76 78 76 76 76 75 81 84 78 81 84 78 76 81 82 81 74 67 63 58 53 50 44 40 41 45 50 53 51 50 51 57 70 80 87 94 98 95 92 91 90 89 88 86 89 95 100 101 100 97 85 70 63 60 59 58 55 50 43 35 29 25 23 25 27 28 25 20 17 15 17 22
94 96 98 101 102 100 99 95 89 90 87 82 83 83 80 79 76 73 72 72 74 75 78 87 89 89 92 90 84 81 74 69 69 63 59 58 50 44 50 61 70 79 82 76 70 74 88 98 98 97 97 93 89 85 81 81 82 83 88 95 100 100 97 93 84 77 76 76 73 70 67 66 63 53 42 35 30 27 27 28 27 22 17 13 15 17
96 93 95 100 99 97 99 94 91 95 92 86 84 83 83 81 78 77 72 72 78 77 77 83 85 90 98 94 85 80 76 72 71 65 62 61 55 50 56 65 69 77 89 93 87 83 86 91 94 95 94 89 84 78 71 68 70 77 88 97 100 98 95 91 88 87 84 77 71 67 63 64 66 64 58 50 42 33 27 28 27 24 20 16 14 13
93 96 97 100 99 97 96 94 96 100 99 95 90 87 87 83 80 80 74 75 83 82 82 87 88 90 94 91 87 84 80 77 73 69 65 60 56 53 55 57 54 54 64 73 73 70 70 76 82 86 86 85 80 70 60 57 59 66 79 92 97 96 94 92 91 86 77 64 57 52 51 54 60 65 64 61 56 46 35 30 30 28 26 22 18 15
83 91 98 100 100 100 99 95 98 102 102 99 94 90 91 91 89 86 79 77 79 79 85 89 90 95 97 92 90 87 84 83 79 76 71 60 54 55 56 54 51 48 50 54 56 56 57 59 61 64 68 68 63 52 41 39 46 55 64 72 76 77 78 78 77 72 63 53 45 38 34 36 42 49 54 55 54 47 38 33 31 29 27 25 22 18
84 83 88 94 97 100 100 95 94 99 101 100 96 90 88 91 95 97 94 89 83 79 81 81 82 93 101 98 95 91 88 87 83 82 78 64 54 54 54 52 47 45 45 46 49 54 56 54 47 42 41 40 38 35 33 34 40 46 49 51 53 55 58 60 60 58 54 49 44 38 33 31 30 30 31 33 33 33 31 29 25 22 21 19 18 16
92 90 89 91 94 97 100 98 97 99 100 100 99 95 92 89 89 94 98 99 95 89 82 76 74 83 94 99 98 94 92 88 82 82 84 75 61 53 51 50 46 43 40 39 40 44 50 52 47 38 29 24 23 25 29 33 36 38 39 40 41 44 47 48 49 49 48 45 42 38 36 35 34 32 28 25 25 26 26 24 21 19 16 14 14 14
97 99 96 93 91 89 91 93 94 98 101 100 100 100 99 96 93 91 91 93 97 96 91 87 83 83 90 98 100 99 98 94 86 82 84 83 73 60 51 47 45 44 41 37 34 32 33 36 36 33 26 19 17 18 21 25 28 30 32 32 33 33 33 32 31 31 30 29 28 27 28 28 28 27 25 22 21 20 20 19 18 17 16 15 15 14
92 90 87 85 83 78 77 77 80 87 91 91 95 100 101 100 99 96 91 91 96 98 97 97 96 92 92 97 100 102 101 99 95 89 87 88 84 74 60 49 43 41 38 36 33 29 25 22 20 19 18 16 16 16 16 18 20 21 23 24 26 25 23 21 19 17 16 16 16 16 17 18 18 17 17 18 17 16 16 15 15 15 14 14 14 15
63 62 60 63 67 67 68 69 69 73 75 80 91 99 101 101 101 99 97 98 100 101 100 101 100 98 96 97 101 101 99 96 94 91 88 86 84 79 69 59 52 46 42 42 39 31 25 23 21 18 15 14 14 16 22 28 33 37 36 32 31 31 28 25 22 19 19 18 17 16 16 15 15 15 14 14 13 14 14 14 13 14 15 15 16 17
51 54 55 59 62 63 62 62 63 68 73 80 87 89 91 95 98 98 98 99 98 99 100 100 100 101 101 100 101 99 97 95 92 88 83 79 76 73 69 66 66 66 66 65 56 46 40 38 36 34 32 29 26 31 43 53 62 68 60 43 35 34 32 29 28 26 25 24 22 20 21 22 21 20 22 25 25 23 21 19 17 18 19 19 18 18
72 73 76 78 75 68 64 61 59 62 68 72 73 74 78 86 92 94 96 97 97 98 100 100 100 100 100 100 101 100 100 99 95 89 84 78 72 70 70 71 74 76 78 76 69 66 65 61 57 56 56 55 54 57 64 65 64 63 54 41 38 38 36 33 32 31 31 31 29 27 29 36 39 39 42 44 42 37 33 29 28 26 23 20 18 18
87 76 70 71 68 61 60 60 59 62 66 64 63 65 71 78 85 89 93 96 96 97 99 100 100 101 100 99 99 98 99 100 99 97 96 90 82 78 79 79 79 78 76 74 74 75 73 73 79 81 77 74 76 76 74 69 62 55 51 50 51 50 47 45 41 38 37 37 35 32 31 36 39 39 37 35 32 32 32 32 31 27 21 20 22 23
84 74 71 78 80 72 64 59 56 57 60 61 65 69 70 73 78 81 86 92 91 90 93 95 95 96 95 93 92 89 87 88 90 92 96 96 93 92 92 90 86 83 78 75 75 75 71 70 78 85 86 89 94 94 89 85 79 73 71 70 68 65 61 56 50 45 42 38 35 33 32 31 32 31 30 29 28 28 29 30 29 26 23 24 28 30
69 70 80 90 90 83 79 74 70 65 61 63 74 79 77 81 85 84 85 87 84 85 89 90 89 89 87 85 84 82 80 78 76 76 78 81 82 84 88 89 88 86 84 80 76 75 74 73 74 76 77 81 87 90 88 86 82 80 79 77 73 68 63 57 52 47 43 39 37 35 34 33 32 31 30 30 29 28 27 28 28 29 33 38 42 41
59 65 78 84 80 79 81 81 80 77 69 68 81 89 89 92 95 93 88 83 82 85 85 80 79 79 78 78 77 76 76 73 70 70 70 69 69 69 70 73 76 78 80 79 77 74 73 72 72 71 68 66 68 69 70 69 67 67 67 65 62 57 52 48 46 42 39 38 37 35 34 33 32 31 30 28 27 26 25 24 24 28 41 58 67 60
60 58 62 64 64 69 78 82 86 85 77 75 83 90 92 96 99 97 90 83 84 89 85 77 75 75 75 75 75 74 74 72 70 71 70 68 67 67 65 65 66 66 67 68 68 67 64 62 61 60 59 57 57 56 56 56 55 54 53 51 49 46 42 40 38 36 35 34 32 30 29 28 27 26 25 24 23 22 20 20 20 22 36 63 83 81
75 70 65 60 57 60 68 78 84 83 82 86 90 88 90 97 100 95 89 85 85 88 85 80 80 79 78 78 76 76 76 75 74 75 74 72 71 69 68 66 64 62 61 60 58 57 56 55 54 52 51 50 49 48 48 47 47 46 44 42 40 38 36 35 32 30 27 24 22 20 18 17 16 15 14 14 14 14 14 14 15 15 20 37 57 64
81 83 82 77 72 69 69 70 64 57 62 81 98 99 96 99 100 97 96 97 93 89 87 84 82 81 81 81 79 78 77 76 76 76 75 74 73 71 70 69 66 65 64 62 60 58 56 54 52 51 50 49 47 46 44 43 42 41 39 37 34 32 30 27 24 22 20 18 17 16 16 16 16 15 16 16 16 16 17 16 17 19 18 20 26 30
63 70 78 82 82 85 91 89 77 62 58 71 91 101 101 100 101 100 101 102 98 94 92 89 86 84 83 83 81 80 79 77 75 74 72 70 69 67 66 64 63 63 61 60 59 58 56 55 53 51 50 48 46 45 43 42 41 40 37 35 33 31 29 28 28 29 29 30 31 31 32 33 34 34 35 35 35 35 35 34 32 32 31 30 29 28
34 40 50 59 64 74 88 96 94 88 81 77 81 89 95 97 98 97 98 98 96 95 93 90 89 88 86 85 84 82 81 81 79 77 76 74 72 71 69 67 66 65 64 64 63 62 61 60 59 59 58 58 57 56 55 55 54 54 54 54 54 54 53 53 53 53 52 52 52 52 52 52 52 52 50 50 51 51 51 52 52 50 48 46 45 43
18 19 24 30 36 44 57 70 78 87 93 94 93 95 98 99 99 100 101 101 100 98 95 93 92 91 90 90 89 88 87 87 85 84 83 80 79 78 77 77 77 76 75 74 72 71 71 70 69 70 70 70 70 69 68 68 68 67 67 67 67 66 64 62 60 58 56 54 52 50 49 48 47 46 44 44 44 45 48 53 57 60 60 58 57 56
18 17 18 20 22 24 29 37 45 55 65 75 83 88 91 94 96 97 98 99 100 100 97 95 93 91 90 90 89 89 88 87 86 85 84 82 81 80 78 77 76 75 74 72 69 68 67 65 64 63 62 61 61 59 57 55 54 52 50 49 47 44 41 39 36 34 32 31 28 27 26 26 26 26 26 26 26 28 32 36 42 49 54 56 58 58
26 23 22 22 21 20 20 22 24 28 32 37 42 48 52 56 60 62 63 64 65 65 64 64 64 64 65 65 64 64 63 62 61 61 61 60 59 57 56 55 54 51 48 46 45 44 43 42 41 39 37 36 35 33 32 31 29 27 24 21 19 17 16 15 14 13 12 12 11 11 11 12 12 12 12 13 13 14 16 19 23 29 34 39 45 48
29 28 29 28 26 24 23 21 20 20 21 21 22 23 25 28 31 36 40 43 45 47 47 46 48 49 50 50 51 52 50 50 52 54 56 57 56 56 57 57 55 52 50 50 51 50 50 50 48 45 42 39 35 31 27 22 19 16 14 13 12 12 11 11 10 10 10 10 9 10 10 10 10 11 11 11 12 12 12 12 13 16 18 22 28 32
25 27 29 32 35 37 34 29 27 27 25 24 23 22 22 23 24 28 33 39 48 56 62 68 76 82 82 82 83 84 83 82 83 86 89 89 89 90 91 90 89 87 86 86 86 83 81 77 72 66 59 49 38 29 22 18 16 15 14 14 13 12 11 11 11 11 11 11 10 10 10 10 10 10 10 10 11 11 12 12 13 14 15 16 17 20
23 24 24 28 36 39 34 29 30 31 31 30 30 28 29 28 27 28 29 31 35 40 45 52 61 71 77 83 88 91 93 93 93 94 95 94 93 93 91 89 86 84 82 79 76 71 67 61 55 49 42 32 24 19 17 16 15 14 13 13 12 11 11 11 10 9 9 8 8 8 8 8 8 8 9 9 10 10 10 10 12 12 13 15 17 17
Wind_Speed
18 19 20 20 21 23 24 25 27 27 26 27 28 28 29 29 30 32 34 32 31 30 30 30 29 27 27 27 27 29 29 28 27 26 26 25 25 25 26 26 26 27 26 25 24 23 22 22 21 20 20 20 20 21 20 18 16 15 13 13 11 9 10 10 11 12 12 12 13 16 18 17 16 15 14 13 12 11 11 11 11 10 10 10 9 9
18 18 19 20 22 23 24 24 25 25 26 26 26 27 28 28 29 32 33 31 30 30 30 30 28 27 27 27 28 29 29 28 28 27 27 25 24 25 26 26 27 27 26 25 23 23 23 23 22 20 19 19 20 20 20 20 20 17 14 15 13 11 11 11 11 12 12 13 15 16 17 16 15 14 13 13 11 11 11 10 10 10 10 11 11 10
18 18 20 21 22 22 22 23 24 24 25 25 25 25 26 26 29 31 30 30 29 29 30 29 27 27 26 27 27 28 27 27 27 27 26 24 24 25 25 26 26 26 25 22 21 22 23 23 22 21 20 20 21 21 20 21 21 19 16 15 14 12 13 13 13 13 14 15 16 16 15 14 13 13 12 11 11 12 12 11 9 8 8 9 10 11
19 21 21 21 21 21 22 22 23 24 24 23 23 23 24 26 26 26 28 29 28 28 28 26 25 25 26 27 27 25 25 25 24 23 23 23 24 25 25 25 24 24 22 20 20 22 23 23 23 22 21 21 21 21 21 21 21 20 17 15 15 14 15 16 16 15 16 16 16 14 13 13 12 12 12 12 12 12 12 11 10 9 8 7 7 9
20 22 21 19 19 20 21 21 22 23 22 22 21 21 23 24 24 26 28 27 26 26 25 23 23 24 25 25 24 23 22 21 20 19 20 22 24 24 23 23 23 22 20 19 20 22 23 23 22 21 20 20 20 20 20 20 19 20 19 17 17 17 18 19 19 18 18 17 16 14 13 12 12 12 13 13 13 12 12 11 10 8 8 6 5 6
21 20 18 18 19 19 19 20 20 20 20 20 19 19 21 22 24 27 26 23 23 23 22 20 20 22 22 21 20 20 18 16 17 18 19 20 21 21 21 22 20 18 17 18 21 22 22 21 19 18 17 17 17 18 17 17 17 17 18 18 18 19 20 20 20 19 19 18 16 15 14 12 11 12 13 14 14 13 12 11 10 9 8 7 7 7
21 18 17 18 18 18 18 18 19 18 18 18 17 18 20 21 23 24 23 21 20 19 19 18 17 18 20 20 19 18 17 16 16 16 17 18 18 19 20 18 17 16 16 19 21 22 20 18 15 13 14 14 14 15 15 15 15 16 18 19 20 21 21 21 21 20 19 18 16 15 14 12 11 12 13 14 13 13 12 11 11 11 10 10 11 11
19 17 17 17 16 16 16 17 17 17 17 17 17 18 20 20 21 22 22 20 18 17 17 18 19 18 19 20 18 16 16 16 16 16 17 17 18 18 18 17 16 17 18 20 21 20 19 17 14 13 12 11 11 13 14 14 16 17 18 20 21 21 21 22 22 21 19 17 16 16 15 13 12 13 14 13 12 11 11 12 13 13 13 13 13 13
18 17 17 16 16 16 16 17 17 17 17 17 17 18 19 19 20 20 20 19 19 18 16 18 20 19 19 20 18 16 17 16 17 19 18 18 18 18 18 18 18 19 19 20 20 19 18 16 15 13 12 11 11 13 15 16 17 18 19 20 21 21 22 22 22 21 19 17 17 16 15 14 13 14 14 13 11 11 12 14 15 15 15 15 15 15
20 19 18 17 17 17 18 18 18 18 18 17 17 18 19 19 19 19 18 17 17 18 18 18 19 19 20 21 18 18 19 18 18 20 20 20 20 20 21 20 20 19 18 19 19 18 17 16 15 14 13 13 13 15 17 18 19 20 20 21 22 22 23 23 23 21 19 18 17 17 16 15 15 15 15 14 14 13 14 15 17 17 17 17 17 17
20 20 19 18 18 17 17 17 18 18 17 17 17 18 18 18 18 17 17 16 17 18 19 18 18 20 20 20 20 20 20 20 19 20 20 20 20 21 21 21 20 18 16 17 18 18 18 17 16 15 14 15 16 18 19 21 22 23 24 25 26 26 26 25 24 22 20 19 18 18 17 16 16 16 16 17 17 17 18 19 20 20 20 20 19 19
20 19 18 18 17 16 16 16 17 17 16 17 16 16 16 16 16 16 16 17 18 18 18 17 19 22 19 19 21 21 20 21 21 21 22 21 21 21 20 20 19 17 16 16 16 17 17 17 17 17 17 18 19 21 23 26 28 28 28 28 28 29 29 27 24 21 20 20 20 18 18 17 17 17 17 18 19 19 20 21 22 22 23 22 22 21
19 18 17 16 17 16 15 16 16 16 16 17 16 15 15 15 16 17 17 18 19 20 19 18 20 23 22 23 23 20 21 23 23 23 24 24 23 21 20 20 18 17 16 15 15 15 16 17 17 18 19 22 24 26 29 31 30 28 26 24 25 28 28 25 21 19 20 20 19 18 17 18 18 18 18 19 20 21 22 23 24 25 25 25 24 24
19 19 18 17 17 17 16 16 16 16 16 16 16 15 15 15 16 17 18 18 19 20 21 20 21 22 24 28 27 22 23 25 25 26 26 26 25 22 21 20 19 18 17 17 16 17 18 19 19 20 23 27 29 29 31 30 27 25 23 21 23 27 26 23 20 19 20 20 19 19 19 18 18 19 20 20 21 21 23 24 25 26 25 25 25 26
21 20 19 19 19 18 17 16 17 16 15 16 15 15 16 16 16 17 18 19 19 20 20 21 23 24 26 29 27 25 25 26 28 28 28 28 27 25 23 21 21 20 20 19 19 20 22 23 23 24 27 29 29 29 29 28 27 27 25 23 24 27 27 26 24 22 22 22 21 21 20 18 19 20 20 21 22 23 24 24 25 25 25 25 25 26
22 21 20 20 20 19 18 17 18 17 16 17 18 18 19 19 19 19 19 19 18 19 20 22 24 25 27 27 25 25 26 27 29 30 30 30 29 28 26 24 23 23 23 23 24 24 25 26 28 30 29 28 30 32 30 26 26 28 29 27 26 28 30 30 26 22 22 23 23 23 21 20 20 20 20 20 21 22 22 22 22 21 21 21 22 22
21 21 21 21 21 21 20 20 20 19 18 19 20 21 20 19 20 19 19 21 20 20 22 22 23 25 26 27 26 26 27 28 30 30 30 30 30 29 28 27 26 25 25 26 27 27 28 30 33 35 32 28 31 35 35 29 25 26 30 31 28 26 29 31 27 23 22 23 24 24 23 21 20 19 18 17 17 18 18 18 18 18 18 18 19 19
20 19 20 22 23 23 22 22 23 22 22 21 21 21 19 18 21 21 20 21 21 22 23 23 23 24 24 26 29 30 30 30 31 31 31 31 31 31 31 30 30 29 29 29 30 31 33 34 35 37 35 32 33 36 39 36 27 25 30 35 33 28 28 30 28 24 22 21 21 22 23 22 21 19 18 17 16 17 16 16 16 17 18 18 18 18
21 20 21 23 24 25 24 25 25 26 26 24 23 22 19 18 22 23 23 22 21 21 22 23 23 23 23 25 28 30 32 33 33 33 33 33 33 33 33 33 33 33 33 33 34 35 35 36 38 39 39 37 35 36 40 40 31 28 31 33 32 30 28 27 27 25 22 20 20 20 21 21 20 18 16 16 16 16 16 16 15 16 17 17 17 16
23 23 23 24 24 25 26 27 26 27 27 27 26 25 24 23 22 22 22 22 21 20 22 23 23 22 24 26 26 25 28 32 33 34 34 34 35 34 34 35 35 35 35 35 36 37 37 37 38 40 42 41 37 35 37 41 36 31 30 29 25 25 26 25 26 25 23 22 20 19 19 18 17 16 16 16 16 15 15 15 15 16 17 17 17 16
26 26 26 25 25 25 26 27 27 26 26 27 27 27 28 27 25 24 23 22 20 19 19 21 21 22 23 24 23 23 24 27 30 32 33 33 34 34 34 34 34 33 33 33 34 36 37 35 33 34 40 44 43 39 38 42 42 37 33 30 26 26 28 28 27 25 22 20 19 18 17 17 17 16 16 16 15 15 15 15 15 16 17 18 18 18
29 28 28 26 24 24 26 26 26 26 25 24 24 24 24 24 25 26 26 24 24 22 20 18 19 20 20 20 21 21 22 24 26 27 28 29 30 30 30 30 30 30 30 30 31 32 33 32 29 28 32 38 42 41 39 41 42 39 36 32 29 29 29 27 23 21 19 19 18 17 17 17 17 17 17 16 15 15 15 15 15 15 15 15 16 17
30 29 29 29 28 27 27 25 25 27 27 26 26 25 24 24 24 25 25 25 25 24 24 21 19 20 19 19 20 20 21 23 24 24 25 25 26 26 26 27 27 28 27 27 28 29 30 30 29 27 28 31 34 36 37 37 36 35 36 36 32 29 27 23 20 19 18 19 19 18 18 17 17 17 17 17 16 16 15 15 15 15 14 14 15 16
31 31 31 31 31 30 29 27 27 27 28 29 31 31 29 28 27 26 25 25 23 23 24 23 23 23 21 19 19 19 20 21 21 21 22 22 22 23 23 23 23 24 24 24 25 27 28 28 28 26 26 27 28 29 31 33 32 30 31 33 31 27 23 21 19 19 18 18 18 17 16 16 17 17 18 18 18 18 17 17 17 16 15 15 15 16
34 35 34 33 33 31 29 30 30 30 30 31 31 33 33 33 32 30 28 27 25 24 22 20 22 23 21 19 19 18 18 18 18 19 20 19 20 21 21 20 20 20 20 21 23 25 26 26 26 25 23 22 24 26 26 26 26 24 23 25 25 23 20 18 18 19 19 18 18 17 17 17 17 17 18 18 19 19 19 19 19 18 17 16 16 16
35 37 36 35 34 31 30 31 30 29 30 31 30 32 34 35 34 33 32 30 28 28 25 21 22 21 19 19 20 20 19 18 19 20 20 19 20 20 19 18 18 18 18 19 22 23 24 24 23 22 20 20 22 23 22 21 20 19 20 21 21 20 19 18 19 21 21 20 20 20 20 20 20 20 20 20 20 20 20 21 21 20 19 18 18 17
30 34 37 37 36 34 33 33 31 29 28 29 31 32 34 35 34 34 33 30 28 28 27 25 25 23 20 19 20 20 19 19 20 20 20 20 21 21 19 18 19 19 18 18 19 20 21 22 22 21 20 19 20 20 20 19 18 18 19 21 21 20 19 20 21 21 21 21 21 21 21 22 22 23 23 22 21 21 21 22 22 22 21 20 20 19
25 26 31 36 39 39 37 35 32 31 29 30 31 31 33 34 34 34 33 30 28 27 25 25 26 25 23 22 21 21 21 21 21 21 20 21 22 22 21 20 21 21 21 20 19 20 21 21 22 22 21 20 20 19 20 19 19 19 19 20 22 22 21 22 23 23 22 22 21 21 21 21 21 23 23 23 22 22 22 22 23 23 22 21 21 21
24 22 22 27 32 37 39 36 34 34 33 33 32 31 32 33 33 33 32 31 31 28 26 27 26 26 26 26 25 25 24 23 23 22 22 21 22 23 23 22 22 22 23 23 22 22 22 22 23 24 23 23 22 22 22 22 22 22 22 22 22 23 24 24 25 25 25 24 23 22 22 21 21 22 22 23 23 23 23 24 25 25 25 25 25 26
25 24 23 22 22 27 33 35 36 37 36 36 35 34 34 34 33 34 33 33 33 31 31 31 29 28 28 29 28 28 26 25 25 24 24 23 24 24 25 25 25 25 25 25 25 24 24 24 24 24 25 25 25 24 24 24 24 25 25 26 26 26 26 27 28 28 28 27 26 26 25 25 24 24 24 25 25 25 26 27 28 29 29 30 30 30
24 23 24 24 22 21 24 27 31 36 39 39 38 37 37 36 35 35 35 35 34 34 33 33 32 30 30 30 30 30 29 28 27 27 27 26 26 27 27 28 28 28 28 28 28 28 28 28 27 27 27 27 27 27 26 26 26 27 27 28 28 28 28 29 30 30 30 30 30 30 30 30 29 29 28 28 29 29 30 31 31 32 33 33 33 34
24 22 22 23 24 23 22 22 23 27 32 36 40 41 41 40 39 38 37 37 37 36 36 35 34 33 32 33 33 32 32 31 31 30 30 30 30 30 30 31 31 31 31 31 31 31 31 32 31 31 31 30 30 30 30 30 30 30 30 30 30 30 31 31 32 32 33 33 33 33 33 34 34 34 33 33 33 34 34 35 35 35 36 36 37 37
25 25 24 24 25 25 25 25 24 23 23 26 30 34 37 38 39 40 40 40 40 39 39 39 38 37 36 36 36 35 35 34 33 32 32 33 34 34 35 35 35 35 35 34 34 34 34 35 35 35 35 35 34 35 35 35 36 36 35 35 35 35 35 35 36 36 36 36 36 37 37 37 37 37 37 37 37 37 38 38 38 38 39 39 39 40
27 27 26 25 26 27 25 26 26 26 25 22 21 23 27 29 31 33 36 37 37 37 38 39 39 39 39 39 39 38 38 37 36 36 36 36 37 38 39 40 39 39 38 37 36 36 36 36 37 38 39 39 39 39 39 39 38 38 38 38 38 39 39 39 40 40 40 40 40 40 40 40 41 41 41 41 41 42 41 41 41 41 41 40 40 42
26 26 26 25 26 26 25 26 28 29 27 23 21 23 23 24 25 27 29 30 30 31 34 36 38 40 40 41 41 41 40 40 39 38 39 39 40 40 40 39 38 37 37 37 37 38 39 40 40 41 41 41 41 41 40 40 39 39 40 42 43 44 44 45 45 44 44 43 43 43 44 44 44 44 43 42 42 42 42 42 41 40 40 41 42 43
25 25 25 25 25 25 25 26 28 28 26 24 24 26 26 25 25 25 26 27 28 29 31 34 36 38 38 39 40 41 42 42 42 41 40 40 40 40 40 40 40 39 39 38 36 36 36 37 39 41 41 42 41 40 42 43 44 45 47 48 49 49 49 49 48 47 47 46 46 45 45 44 43 42 41 40 40 40 41 41 41 42 44 45 44 44
26 26 26 27 28 27 26 27 27 26 25 25 25 26 27 28 28 27 27 28 29 30 31 31 33 34 34 34 34 35 36 39 42 42 42 42 42 40 41 43 44 44 44 43 40 39 38 36 36 37 39 41 42 44 46 48 50 51 51 51 51 51 51 50 49 49 49 49 49 48 47 46 46 46 46 46 46 46 45 45 46 48 49 47 46 46
29 28 27 27 27 27 27 28 28 27 27 25 25 26 27 29 29 30 30 29 30 30 31 31 32 32 33 33 33 32 32 34 37 39 40 42 42 41 42 43 45 46 47 46 45 45 44 43 41 41 41 41 43 45 47 49 49 49 50 50 50 51 51 51 52 53 53 54 54 53 52 52 52 52 52 52 51 50 50 50 50 51 50 48 47 47
32 31 29 29 29 27 26 26 27 28 28 26 25 26 27 28 29 30 30 31 31 31 31 31 32 32 33 33 34 34 35 36 36 36 37 39 41 42 43 44 45 46 47 47 48 48 49 48 49 50 50 50 50 50 51 52 52 52 53 53 54 55 56 57 58 58 59 58 57 57 57 56 56 56 56 56 55 55 54 53 52 51 50 48 48 48
34 33 32 32 32 30 29 29 29 30 30 28 27 28 29 29 30 30 31 32 32 32 33 33 33 34 34 34 34 34 35 36 36 36 38 39 40 42 43 44 46 48 49 50 51 52 53 54 54 55 56 56 57 57 58 58 58 59 59 60 60 61 61 61 61 61 61 61 60 60 60 60 60 60 60 59 59 59 58 57 55 53 51 49 49 49
35 35 34 35 34 33 32 33 33 33 32 30 31 32 32 32 33 34 35 34 33 34 35 35 36 36 36 36 36 36 36 36 36 36 38 39 40 42 43 45 46 48 50 51 53 54 55 56 56 57 57 58 59 60 60 60 61 61 62 62 63 63 64 64 64 64 64 64 64 64 64 64 64 64 63 62 61 60 60 59 57 55 53 52 51 51
34 34 35 36 36 35 35 35 36 35 33 32 33 35 36 36 37 37 36 36 35 36 36 36 37 37 37 37 37 37 37 37 38 38 39 39 41 42 43 45 46 48 50 51 53 54 55 56 57 58 59 59 60 61 62 62 63 63 64 64 65 66 66 67 67 67 67 67 68 68 67 67 66 66 65 63 62 61 60 59 57 56 56 56 56 57
33 33 34 35 36 37 37 38 39 40 38 34 32 32 34 36 36 36 35 35 37 37 37 38 38 39 39 40 40 40 40 41 41 42 42 43 43 44 45 46 47 49 50 52 53 54 55 56 58 58 59 60 61 61 62 63 64 65 65 66 67 67 68 68 68 68 68 68 69 69 68 68 67 66 65 64 63 62 60 59 57 57 56 56 58 59
37 35 34 35 36 36 36 37 39 40 40 39 36 35 35 36 37 37 37 38 39 39 39 39 40 40 41 41 42 42 43 43 44 45 46 46 47 48 48 49 50 51 52 53 54 54 55 56 57 58 59 60 61 62 63 63 64 65 66 67 68 68 68 68 68 68 68 69 69 69 69 69 69 68 67 66 65 64 63 62 60 59 58 57 57 57
38 38 37 37 38 38 38 38 39 39 40 42 43 43 43 44 44 44 43 43 43 42 42 42 42 43 43 43 44 44 45 46 47 47 48 49 50 50 51 52 53 54 54 55 56 57 58 58 59 60 60 61 62 63 63 64 64 65 65 66 66 67 67 67 67 68 68 68 69 69 69 69 68 68 68 67 66 65 64 63 62 61 60 59 58 58
35 37 37 37 38 39 39 40 40 40 41 42 43 44 45 45 45 45 45 45 44 44 44 44 44 44 44 45 45 46 46 47 48 49 50 50 51 52 53 53 54 55 56 56 57 57 58 58 59 59 60 60 60 61 61 61 62 62 63 63 63 64 65 65 66 67 67 68 68 68 68 68 67 67 66 65 64 64 63 62 61 60 59 59 58 58
31 32 33 33 34 36 37 38 39 39 40 41 42 42 43 43 43 42 42 42 43 43 43 43 43 44 44 44 44 45 46 46 47 48 48 49 50 50 51 52 52 53 54 54 55 55 56 56 56 56 56 56 56 57 57 58 59 60 61 62 63 64 65 66 66 67 67 68 68 68 68 69 68 68 67 66 65 64 63 62 62 60 59 58 57 56
24 26 28 29 30 31 32 34 35 36 37 38 39 39 40 40 40 40 40 40 40 41 41 41 41 41 41 42 42 43 43 43 44 44 45 46 46 47 48 48 49 50 51 52 52 53 53 53 54 54 54 55 55 55 56 57 58 58 59 60 61 61 62 62 63 63 64 64 64 65 65 66 66 67 67 66 66 65 64 63 63 62 61 60 58 56
18 20 22 24 25 26 28 29 30 31 32 33 34 35 35 35 35 36 36 37 37 37 37 38 38 38 38 38 39 39 40 40 40 41 42 42 43 44 45 46 47 48 49 50 51 51 52 53 53 54 55 56 57 57 58 58 57 57 57 57 57 57 58 58 58 59 60 60 61 61 62 62 63 64 65 65 65 65 65 64 62 62 62 61 60 59
13 14 16 18 19 21 22 24 25 26 27 28 29 30 30 31 31 32 32 33 33 34 35 35 35 35 35 36 36 37 38 38 39 39 41 42 43 44 45 46 48 49 50 51 52 53 55 56 57 58 59 60 60 59 58 57 56 56 56 56 56 56 56 57 57 58 59 60 61 61 62 62 63 64 65 65 65 65 65 64 62 62 61 61 60 59
12 12 12 14 14 14 16 18 19 20 22 23 24 25 26 27 28 29 30 31 32 32 33 34 35 36 37 38 39 40 41 42 43 44 45 47 48 49 51 52 53 54 55 56 57 58 58 59 59 59 59 58 56 55 54 54 54 55 55 55 56 56 56 57 57 58 58 59 60 61 61 62 63 64 65 66 67 67 66 65 64 63 62 61 59 58
Wind_Direction
233 232 231 230 228 227 225 224 226 227 225 221 219 217 216 216 217 223 227 226 227 231 235 238 238 237 237 235 234 237 239 240 241 241 240 240 241 242 243 244 247 250 251 252 253 255 257 258 259 259 257 254 256 259 264 264 255 255 250 234 235 241 229 219 220 228 238 247 254 257 259 261 261 261 263 268 271 276 285 290 292 291 288 283 275 266
231 230 228 227 227 227 226 226 228 229 228 225 222 220 219 218 220 225 228 228 229 231 235 237 238 238 238 237 236 237 239 240 241 242 242 241 240 241 241 242 244 246 248 251 252 255 257 259 260 258 254 252 254 255 260 263 257 253 245 235 242 250 242 237 234 237 244 250 254 256 260 264 265 265 264 267 273 279 285 289 288 287 286 284 278 272
228 226 225 226 226 227 227 227 228 229 230 228 225 224 222 222 225 229 231 232 231 232 235 237 238 239 240 239 239 238 239 240 241 243 243 239 235 235 235 237 240 242 246 250 251 254 257 258 259 256 253 251 251 250 251 253 250 247 244 241 246 247 243 244 244 244 249 252 255 258 264 268 267 265 264 267 274 280 286 287 281 272 270 276 278 275
224 224 225 227 227 227 227 226 226 228 229 228 227 225 225 226 228 232 234 234 234 234 236 238 240 241 240 240 241 241 241 242 242 242 239 232 227 226 228 231 235 239 244 248 250 253 254 255 256 255 253 249 246 244 243 243 242 243 243 239 240 244 244 244 245 249 253 254 255 257 261 265 265 264 266 270 276 281 285 283 277 268 261 266 278 281
224 227 228 229 229 229 229 229 227 228 228 227 226 224 226 229 228 230 234 235 236 238 237 238 239 240 240 241 242 241 241 240 237 233 229 226 224 222 223 227 233 238 243 246 248 249 250 251 252 252 250 246 243 240 237 236 236 238 241 240 241 245 244 244 246 249 253 254 254 254 255 257 261 264 268 272 277 281 281 275 270 268 264 262 274 286
227 229 230 230 230 230 230 231 230 230 229 227 225 223 227 229 228 232 237 237 239 241 238 233 235 240 242 241 239 236 233 229 226 224 222 223 223 220 221 228 236 240 242 243 243 244 244 246 248 249 247 244 242 239 236 234 234 236 239 242 244 245 244 245 247 248 250 252 252 253 253 254 260 265 270 275 278 279 274 267 264 265 268 276 284 289
227 228 228 229 230 231 231 232 232 230 229 228 224 221 225 228 230 234 237 236 236 240 237 227 223 232 238 236 233 230 224 218 217 219 220 221 219 219 223 229 235 236 236 237 238 237 237 240 244 246 245 243 238 236 236 235 235 236 238 241 243 243 243 244 245 247 249 250 252 254 256 259 265 269 272 275 276 274 265 256 256 259 265 281 292 293
227 226 227 229 230 231 231 230 230 227 225 226 222 220 223 227 230 233 234 232 229 230 230 220 215 221 230 234 232 229 225 220 217 216 218 219 217 217 219 221 226 230 231 231 231 230 230 234 239 241 241 241 238 233 232 234 236 237 238 240 241 242 242 243 244 245 246 248 252 255 259 265 270 273 274 272 271 267 257 250 253 256 260 272 287 290
225 224 225 226 227 226 225 225 224 221 219 221 220 219 221 224 227 230 230 230 227 226 224 219 218 217 225 234 232 228 228 225 221 216 213 214 212 208 209 213 220 225 225 227 231 231 229 233 238 239 238 239 239 234 231 232 233 236 237 239 240 240 241 242 242 243 243 245 249 254 260 264 267 271 270 267 268 267 261 258 260 261 262 268 277 284
223 224 224 224 223 221 221 221 221 219 217 218 218 218 220 222 225 226 226 228 228 227 224 222 220 213 216 227 227 224 227 225 223 218 212 212 208 203 207 214 219 221 221 225 234 236 231 234 239 239 237 237 240 236 233 233 232 234 235 236 236 236 237 238 239 240 240 240 245 252 257 260 264 266 263 261 266 271 272 272 272 271 270 270 273 278
227 227 227 225 225 224 222 220 221 220 218 219 218 218 221 223 225 226 226 228 228 227 226 224 220 213 214 223 223 221 223 226 227 224 218 214 210 208 213 218 219 220 221 226 237 240 236 237 244 245 238 235 237 237 235 235 234 235 234 234 233 230 230 232 234 237 238 239 243 248 253 258 261 259 256 257 263 271 276 277 278 278 277 276 275 276
231 232 231 230 229 227 226 224 223 222 220 221 221 221 224 226 227 227 225 227 228 229 227 220 218 218 216 221 225 220 217 223 227 224 219 215 215 218 220 220 221 223 227 233 242 248 247 246 251 253 246 239 238 238 237 235 234 235 236 237 234 228 225 224 227 234 239 242 245 249 255 259 260 259 259 263 267 272 276 278 279 280 280 280 279 278
235 237 236 235 233 229 227 226 227 226 222 223 222 220 222 225 225 223 223 228 229 229 227 219 219 222 219 223 229 221 212 219 226 224 220 217 219 224 223 221 223 227 235 242 249 257 261 259 260 261 257 248 240 237 237 237 238 239 243 248 242 232 225 220 224 237 243 247 250 254 260 262 264 267 269 272 275 277 279 280 280 281 282 283 282 280
236 237 235 233 232 230 226 224 227 228 227 227 224 220 219 221 223 222 224 229 229 230 232 229 228 227 224 228 232 227 217 219 224 226 224 222 224 227 227 226 228 232 239 246 251 259 265 265 264 262 257 250 244 244 246 247 247 247 251 256 247 236 227 222 233 246 246 250 255 256 260 266 270 273 275 278 280 280 280 279 278 279 282 283 281 278
232 235 237 236 233 231 229 226 227 228 229 228 225 223 220 219 224 225 223 229 231 232 235 235 233 231 230 232 232 230 226 223 224 227 227 228 230 232 232 232 233 236 241 247 251 257 264 268 269 264 257 256 256 258 261 260 258 257 257 255 244 232 224 226 238 245 244 247 252 255 261 267 271 274 278 282 282 281 280 278 277 279 280 280 279 278
231 232 235 237 236 233 231 230 228 226 228 230 228 226 223 220 226 229 227 230 232 233 235 236 235 235 235 236 233 230 230 228 228 230 231 233 235 236 237 237 238 240 242 246 252 256 262 269 273 269 262 262 264 261 259 259 258 257 255 249 237 226 222 227 237 245 247 251 252 255 260 264 268 272 275 278 280 280 280 279 279 279 279 279 279 279
234 235 236 237 238 235 231 231 231 225 224 231 235 234 231 230 233 236 239 240 237 237 239 238 238 239 239 240 238 234 233 232 231 233 234 236 238 238 240 240 240 242 244 248 253 257 262 266 270 271 267 268 272 265 255 250 252 254 251 244 235 226 223 228 236 249 255 254 252 252 257 261 265 268 269 272 276 278 280 279 276 274 274 275 275 275
227 232 235 234 235 235 232 233 234 229 224 226 235 239 239 241 241 238 240 243 242 241 242 241 241 242 241 240 238 236 235 234 234 236 237 238 240 240 241 242 242 244 247 251 254 256 259 261 263 267 267 268 272 268 254 245 249 258 252 243 237 232 230 229 235 247 251 249 250 250 253 257 260 262 265 266 266 270 274 274 271 270 270 269 267 265
222 225 232 234 234 234 232 233 235 236 232 226 230 235 235 241 246 244 242 244 247 248 248 247 246 245 243 240 237 235 235 236 236 237 239 240 242 243 245 246 246 248 250 254 255 255 257 257 258 261 261 260 263 264 253 241 248 266 258 244 237 234 235 235 237 243 246 248 251 249 250 253 252 254 256 256 259 263 267 268 267 268 269 268 265 261
222 222 230 234 234 234 233 233 233 237 239 234 231 231 230 233 239 245 245 245 248 250 251 253 251 246 241 239 239 236 235 237 237 239 242 244 247 249 250 252 252 252 253 253 254 255 255 257 260 257 253 252 257 264 255 242 249 269 261 245 240 236 240 246 247 249 251 251 250 247 247 248 246 246 247 249 253 257 261 265 266 267 268 267 266 264
222 222 227 233 235 235 235 233 231 233 237 238 237 235 234 235 236 240 243 241 239 240 245 250 249 244 240 240 241 238 235 236 237 240 242 245 248 250 251 252 253 253 253 251 251 252 253 255 258 254 247 247 253 262 260 249 254 265 257 247 249 248 249 253 252 252 252 249 246 243 240 239 237 238 240 242 246 251 258 262 264 267 267 266 267 268
226 224 226 232 235 234 235 235 232 231 232 233 236 237 237 238 238 241 244 243 238 235 238 243 246 246 242 238 238 235 233 234 236 238 240 242 245 247 248 249 250 250 250 250 249 250 252 254 254 251 247 247 252 258 261 257 259 260 249 246 254 253 250 247 242 241 240 237 234 231 229 228 227 230 234 237 243 249 256 259 261 264 266 269 271 271
230 228 226 229 231 232 236 237 234 234 233 229 231 232 233 235 237 239 241 242 241 238 237 239 242 244 240 235 234 233 233 234 236 237 239 241 243 246 248 248 249 249 249 249 249 249 252 253 253 251 249 249 252 256 260 262 265 259 245 245 254 251 240 231 224 221 220 221 223 224 225 227 228 232 236 239 243 248 253 255 257 260 264 269 273 273
230 230 228 228 231 233 238 239 237 236 233 229 230 230 229 232 235 235 235 237 239 238 238 238 241 241 238 234 234 233 232 233 233 234 235 237 240 243 246 247 248 249 249 248 248 249 251 252 253 254 253 253 255 259 262 264 266 261 248 247 253 250 238 227 219 215 214 215 219 223 227 231 234 237 239 242 245 247 250 253 256 258 261 264 267 270
231 231 229 228 231 235 239 239 239 238 233 231 233 233 230 232 234 235 236 237 239 239 237 236 240 240 235 232 233 230 228 227 226 227 229 232 237 241 245 248 248 248 248 248 247 248 250 253 256 259 259 257 258 262 265 264 262 259 251 246 249 250 245 232 218 214 215 217 220 225 230 234 236 238 239 242 244 246 249 253 256 257 257 258 259 261
235 235 231 228 230 232 236 239 240 240 238 238 237 235 233 234 236 237 238 239 240 241 239 235 238 238 229 225 228 227 226 225 224 228 231 234 239 242 244 247 246 245 247 246 244 245 248 251 255 259 258 255 254 258 262 263 261 258 252 246 242 241 238 228 217 216 220 225 230 234 237 238 237 237 239 241 243 247 249 252 254 254 253 253 253 252
239 239 236 233 229 227 231 237 239 240 242 242 241 237 235 235 235 236 238 240 241 242 240 235 236 238 232 227 228 228 228 228 230 234 237 239 240 240 241 242 241 241 243 242 238 239 243 245 248 252 252 248 247 249 252 255 255 254 250 245 239 233 228 225 223 224 229 234 238 240 242 241 239 239 240 242 244 247 249 250 251 250 250 250 248 245
243 244 240 237 233 229 230 234 236 237 238 238 239 239 238 237 236 236 238 239 238 238 238 236 234 236 237 234 232 231 232 234 237 240 241 241 240 239 240 241 241 241 242 242 242 243 242 243 244 247 248 246 244 244 247 248 247 246 244 241 239 236 233 232 233 235 237 238 239 240 241 242 242 242 242 243 244 246 249 250 250 250 250 249 248 249
247 247 244 240 237 234 233 233 234 235 236 237 237 237 237 237 237 237 238 239 238 236 236 237 235 236 239 239 235 234 236 239 242 243 242 241 239 239 239 241 242 242 243 244 246 245 243 242 243 244 245 246 246 247 247 246 245 244 242 241 240 241 241 241 242 242 242 240 240 241 242 243 244 246 246 246 246 247 250 252 253 255 255 255 256 258
249 246 244 244 242 239 236 235 235 235 236 238 238 237 237 237 237 237 238 238 239 238 237 238 239 238 240 240 238 236 237 240 242 243 242 240 238 238 240 241 243 243 244 245 246 247 246 245 245 247 248 249 251 252 251 247 244 242 243 244 244 245 246 246 247 247 247 247 248 248 249 249 249 249 250 251 251 251 253 255 257 260 261 262 262 264
250 247 244 244 245 244 242 240 240 239 237 237 238 238 236 236 236 237 237 238 239 239 240 241 242 241 240 239 237 237 238 241 244 244 242 240 239 239 239 241 243 244 245 247 248 249 249 249 250 251 252 253 254 255 255 252 248 245 245 245 246 247 248 249 250 252 252 254 255 256 256 256 255 254 254 255 256 256 257 259 260 263 264 266 266 267
250 249 248 248 248 248 249 250 248 245 241 239 240 240 237 235 236 237 237 238 239 241 243 244 244 243 241 239 238 239 241 243 245 245 244 242 242 242 242 242 243 244 246 247 248 250 251 252 254 255 257 258 258 257 257 256 254 252 250 249 249 250 252 254 255 256 257 258 258 258 258 258 258 258 258 260 261 262 263 264 265 266 267 268 269 270
253 255 256 257 255 253 252 254 257 255 249 244 242 242 240 238 238 239 240 239 239 240 242 243 244 244 243 241 240 241 243 245 245 246 246 246 246 246 247 247 247 246 246 247 248 250 252 253 255 256 258 259 260 260 259 258 257 257 256 255 255 255 256 257 258 258 259 260 260 260 260 260 260 260 260 261 261 262 264 265 266 267 268 269 270 271
257 259 258 258 257 255 253 254 256 255 252 249 246 244 242 241 239 239 240 241 241 242 242 241 241 242 243 242 242 242 244 245 246 247 248 248 249 249 249 250 250 250 249 248 248 250 253 255 257 259 260 260 260 261 261 260 260 259 257 258 258 258 258 259 260 261 261 261 262 262 262 262 262 263 263 262 262 262 263 264 265 266 268 269 270 270
257 257 256 255 255 255 253 252 252 251 251 251 252 250 248 245 242 238 236 236 239 243 246 245 243 242 242 242 242 243 244 244 245 248 249 248 249 249 249 249 250 252 253 251 249 251 254 256 258 259 259 259 260 260 260 259 257 256 256 259 261 261 261 262 263 264 264 264 265 266 266 266 265 265 265 265 264 264 264 264 264 265 267 270 271 270
252 252 253 254 254 254 253 252 252 252 253 253 251 250 250 248 246 243 238 234 234 237 243 245 245 243 242 242 242 242 243 242 241 240 241 242 244 246 247 247 248 251 252 252 251 253 254 257 260 260 257 257 257 257 256 257 256 256 259 262 263 263 264 264 265 265 266 267 267 268 268 268 266 265 266 266 267 267 267 267 264 265 269 272 271 270
251 253 256 258 258 257 256 255 254 253 253 255 254 251 249 247 246 246 243 240 237 237 239 241 242 242 241 242 242 242 242 242 240 238 236 236 237 239 242 244 245 246 247 247 248 248 249 251 255 256 255 254 254 253 254 257 259 260 262 264 265 265 266 267 267 268 269 271 271 271 269 268 267 267 268 269 269 270 270 269 268 269 272 272 271 270
253 255 257 259 258 258 258 257 258 256 253 253 255 253 249 248 246 246 245 245 243 243 243 244 245 246 246 247 247 247 246 245 243 241 239 238 237 237 238 240 241 243 244 246 246 247 246 246 245 246 248 251 253 253 256 258 260 261 262 263 264 266 267 268 269 270 271 273 273 272 271 270 269 270 270 271 271 271 271 271 271 272 273 272 270 269
253 253 256 257 256 258 259 258 259 259 255 253 253 252 249 247 245 244 245 245 245 247 248 249 250 252 252 253 253 252 251 250 249 247 246 244 244 243 242 242 243 244 246 246 246 247 248 249 248 248 250 253 255 256 258 260 261 262 262 263 264 266 267 269 270 271 272 273 273 272 271 271 270 270 271 271 272 271 271 271 271 272 271 270 268 266
253 253 254 255 256 256 258 259 259 260 259 256 254 252 250 248 246 246 247 248 250 252 253 253 253 254 255 255 255 254 253 253 253 251 250 249 248 248 247 246 246 247 247 248 248 249 251 252 252 252 253 254 256 257 259 260 261 262 263 264 265 266 268 269 270 271 273 273 273 273 273 272 272 271 271 271 270 270 270 269 268 268 266 264 262 262
253 253 253 253 254 254 254 256 257 259 260 257 253 251 250 250 250 251 252 253 254 255 256 256 256 257 257 257 258 257 257 256 255 253 253 252 252 251 251 250 249 249 249 250 250 251 252 253 254 255 255 256 257 258 259 261 262 263 264 265 267 268 269 269 270 271 272 273 273 273 273 272 272 271 271 270 269 268 268 266 265 264 261 259 257 257
252 252 252 252 252 251 250 251 252 254 256 256 253 251 250 249 250 252 254 254 254 255 257 258 258 258 258 258 258 259 259 259 258 257 255 254 254 253 252 252 252 252 252 252 252 253 254 254 255 256 257 258 259 260 261 262 264 265 266 267 268 269 269 269 270 270 270 271 271 272 272 272 271 271 271 270 269 268 267 266 264 262 260 257 256 256
249 250 251 251 251 250 250 250 250 251 252 252 251 249 247 247 249 251 252 252 253 254 256 257 258 258 258 258 258 258 258 258 259 259 258 258 257 257 256 255 255 254 254 254 254 254 255 256 256 257 258 259 260 260 261 262 263 265 266 267 267 268 268 268 269 269 269 270 270 270 271 271 271 271 271 271 270 269 268 267 265 263 261 259 257 257
249 248 249 250 250 250 250 250 250 250 249 248 246 245 245 248 252 254 255 254 255 256 256 256 256 256 256 256 256 257 257 257 258 258 258 259 259 259 259 259 259 259 259 259 259 259 259 259 260 260 261 261 261 262 262 263 264 264 265 266 267 268 268 269 269 269 269 269 270 270 270 271 271 271 271 271 271 270 269 268 267 265 263 261 260 259
252 250 249 249 249 248 248 249 250 250 249 248 247 247 249 252 255 257 258 259 259 259 258 258 257 257 256 256 256 257 257 257 258 258 259 259 259 260 260 261 261 261 262 262 262 262 262 263 263 263 263 263 264 264 264 265 265 265 266 266 267 268 268 268 269 269 269 269 269 269 269 270 270 270 270 270 270 269 268 268 267 266 264 262 261 260
253 252 251 250 250 249 249 249 250 250 250 250 250 251 252 254 256 258 259 259 260 260 261 260 260 259 259 258 258 258 258 259 259 260 260 261 262 262 262 263 263 264 264 264 264 264 265 265 265 265 266 266 266 266 267 267 267 267 267 267 267 268 268 268 268 268 268 269 269 269 269 269 268 268 268 268 267 267 266 266 265 264 263 263 261 260
253 253 252 251 251 251 251 251 250 251 251 251 252 253 254 256 257 258 258 259 260 261 261 262 262 262 262 261 261 261 261 262 262 263 263 264 264 265 265 265 265 265 265 266 266 266 266 266 266 267 267 267 267 268 268 268 269 269 269 268 268 268 268 268 268 268 268 269 269 269 269 268 268 267 266 265 264 264 263 263 262 262 261 260 260 259
255 254 254 253 252 252 252 252 252 252 253 253 253 254 255 256 258 259 260 260 260 260 261 261 262 262 263 263 263 263 263 263 263 264 264 265 265 265 266 266 266 266 266 267 267 267 268 268 269 269 269 270 270 271 271 272 272 273 273 272 271 271 270 270 270 269 269 268 268 267 267 267 267 266 266 265 264 262 261 260 259 259 259 258 257 256
259 258 256 256 256 255 254 254 254 254 254 255 255 256 257 258 259 260 261 262 263 264 264 265 266 266 267 267 267 268 268 268 269 269 269 270 270 270 271 271 271 271 271 271 272 272 273 274 275 276 276 277 278 279 279 279 279 279 277 276 275 274 273 273 272 271 271 269 268 267 266 266 265 265 264 264 263 262 261 259 258 257 256 256 254 253
264 262 260 259 259 258 257 257 256 256 256 256 256 256 257 258 258 258 259 260 260 261 262 263 264 265 265 266 266 267 267 268 268 268 268 268 268 269 269 269 270 270 271 271 272 273 274 275 277 278 279 280 281 281 281 281 280 279 278 278 277 277 277 276 275 274 273 272 271 270 268 267 266 265 264 263 262 261 260 259 257 255 254 253 252 251
267 266 263 262 261 260 260 260 258 256 256 255 255 255 255 255 255 256 256 257 257 258 258 259 259 259 260 260 260 261 262 263 264 264 265 266 266 267 268 269 270 271 272 272 273 274 275 275 276 277 278 279 280 280 280 279 279 279 279 279 279 278 278 277 276 275 274 273 272 271 269 268 266 265 264 263 262 260 259 258 257 255 253 252 251 249